Date,TemperatureHighF,TemperatureAvgF,TemperatureLowF,DewpointHighF,DewpointAvgF,DewpointLowF,HumidityHigh,HumidityAvg,HumidityLow,PressureMaxIn,PressureMinIn,WindSpeedMaxMPH,WindSpeedAvgMPH,GustSpeedMaxMPH,PrecipitationSumIn
2013-1-1,22,13,8,13,4,-2,88,68,34,0.00,40.00,0,-999,0,0.00
2013-1-2,17,12,7,5,-2,-13,77,54,24,0.00,40.00,0,-999,0,0.00
2013-1-3,41,26,18,8,-4,-17,41,26,16,0.00,40.00,0,-999,0,0.00
2013-1-4,40,27,14,6,-1,-12,51,31,18,0.00,40.00,0,-999,0,0.00
2013-1-5,30,17,4,12,0,-15,74,50,20,0.00,40.00,0,-999,0,0.00
2013-1-6,40,28,16,12,-2,-22,51,29,8,0.00,40.00,0,-999,0,0.00
2013-1-7,31,24,13,15,8,0,69,50,32,0.00,40.00,0,-999,0,0.00
2013-1-8,28,23,20,15,10,5,70,56,47,0.00,40.00,0,-999,0,0.00
2013-1-9,42,35,27,15,7,-1,58,33,19,0.00,40.00,0,-999,0,0.00
2013-1-10,37,32,21,16,9,-2,80,42,19,0.00,40.00,0,-999,0,0.00
2013-1-11,22,6,-6,18,2,-10,90,85,80,0.00,40.00,0,-999,0,0.00
2013-1-12,0,-5,-12,-5,-9,-16,83,80,73,0.00,40.00,0,-999,0,0.00
2013-1-13,-1,-9,-18,-7,-14,-23,83,79,76,0.00,40.00,0,-999,0,0.00
2013-1-14,8,-4,-16,3,-12,-22,80,69,48,0.00,40.00,0,-999,0,0.00
2013-1-15,31,22,8,22,16,4,88,76,59,0.00,40.00,0,-999,0,0.02
2013-1-16,36,28,13,17,11,6,75,51,33,0.00,40.00,0,-999,0,0.01
2013-1-17,40,23,8,16,6,-1,86,54,24,0.00,40.00,0,-999,0,0.00
2013-1-18,43,34,29,5,2,-4,33,24,18,0.00,40.00,0,-999,0,0.01
2013-1-19,39,32,28,5,-6,-11,37,20,13,0.00,40.00,0,-999,0,0.00
2013-1-20,30,26,12,21,6,-3,93,43,24,0.00,40.00,0,-999,0,0.00
2013-1-21,39,33,26,12,4,-12,49,32,12,0.00,40.00,0,-999,0,0.00
2013-1-22,44,35,21,10,-4,-14,39,20,9,0.00,40.00,0,-999,0,0.00
2013-1-23,44,38,32,5,-2,-7,30,19,13,0.00,40.00,0,-999,0,0.01
2013-1-24,39,32,24,17,10,-6,69,41,15,0.00,40.00,0,-999,0,0.00
2013-1-25,40,30,22,15,8,3,68,42,25,0.00,40.00,0,-999,0,0.00
2013-1-26,39,31,24,19,17,14,69,57,41,0.00,40.00,0,-999,0,0.00
2013-1-27,33,25,16,23,18,14,97,76,54,0.00,40.00,0,-999,0,0.01
2013-1-28,15,10,-1,13,8,-5,93,89,83,0.00,40.00,0,-999,0,0.01
2013-1-29,14,4,-2,7,-1,-9,85,78,67,0.00,40.00,0,-999,0,0.00
2013-1-30,20,15,1,12,7,-8,77,70,61,0.00,40.00,0,-999,0,0.00
2013-1-31,25,23,20,14,12,7,69,61,54,0.00,40.00,0,-999,0,0.01